Yaogan 30 hao 04 zu 03 xing

operational
NORAD ID: 43172 Int'l Des: 2018-011 Owner: ZLZB Country: CN Constellation: yaogan
LEOCIRCULAR

Über Yaogan 30 hao 04 zu 03 xing

Beschreibung wird geladen...

Live-Position

3D-Globus wird geladen...

Nächste Überflüge

Höhenverlauf

Altitude vs Time

uPlot chart will show altitude changes over time

Zweizeiliger Elementsatz

1 43172U 18011D 25278.42462204 .00005162 00000-0 40057-3 0 9999
2 43172 34.9965 261.7534 0003130 332.5417 27.5125 15.00783759419769
Epoch: 5. Okt. 2025 • Age: 14 hours

Aktueller Status

Höhe 570.5 km
Geschwindigkeit 7.58 km/s
Subsatellitenpunkt -24.98°S, 105.24°E
Startdatum 25. Jan. 2018
Alter 7.6 years
Typ military

Technische Details

Klassifizierung Payload
Masse 500.00 kg
Trockenmasse 500.00 kg
Gesamtmasse 500.00 kg
Länge 0.50 m
Durchmesser 0.50 m
Spannweite 1.00 m
Form Box + 2 Pan
Hersteller SECM
Phasenstatus In Orbit
Besitzer/Staat ZLZB/CN

Große Konstellationen

Loading constellations...